Location: Neuvy Saint Sepulchre
(46.5953°N, 1.8122°E)
Time: 21:26:03
(UTC+01:00)

ISS - Pass Details

Date: 18 March 2023
Orbit: 414 x 422 km, 51.6° (Epoch: 25 March)

Event Time Altitude Azimuth Distance (km) Brightness Sun altitude
Rises 21:47:40 0° 268° (W) 2,353 0.9 -27.9°
Reaches altitude 10° 21:49:51 10° 277° (W) 1,490 -0.2 -28.2°
Enters shadow 21:50:55 18° 286° (WNW) 1,096 -0.9 -28.3°
